Zurück zum Katalog

SATCOM 3 DEB

LostHEO
NORAD 31138·DEBRIS·🇺🇸 United States

Gestartet Dec 7, 1979 von Cape Canaveral Space Force Station

Loading…

Nächste Überflüge (nächste 24 Stunden)

TLE

VeraltetSource: Space-Track

Epoche: Jul 11, 2026, 06:15 UTC

1 31138U 79101H   26192.26078140 -.00000044  00000-0  00000-0 0  9991
2 31138   9.2667  47.1300 4918860 177.1776  31.8474  1.83045993131087

Verfolge SATCOM 3 DEB in Echtzeit mit AllMySat

Download on the App Store